******************************************************************************* JPL/HORIZONS Boattini (C/2010 U3) 2025-Dec-12 17:56:40 Rec #:90004105 (+COV) Soln.date: 2023-May-10_17:42:22 # obs: 4354 (2005-2023) IAU76/J2000 helio. ecliptic osc. elements (au, days, deg., period=Julian yrs): EPOCH= 2457922.5 ! 2017-Jun-18.0000000 (TDB) RMSW= n.a. EC= 1.000854751537623 QR= 8.445818784114149 TP= 2458540.6229845765 OM= 43.07283924546797 W= 88.06513294078631 IN= 55.51208440289003 A= -9881.022042501379 MA= -.000620263413142049ADIST= 9.999999E99 PER= 9.999999E99 N= 1.003E-6 ANGMOM= .070714765 DAN= 16.34647 DDN= 17.48988 L= 129.6584971 B= 55.4645609 MOID= 7.92882013 TP= 2019-Feb-26.1229845765 Comet physical (GM= km^3/s^2; RAD= km): GM= n.a. RAD= n.a. M1= 6.3 M2= 8.3 k1= 6.25 k2= 5. PHCOF= .030 COMET comments 1: soln ref.= JPL#152, data arc: 2005-11-05 to 2023-04-15 2: k1=6.25, k2=5., phase coef.=0.03; ******************************************************************************* ******************************************************************************* Ephemeris / WWW_USER Fri Dec 12 17:56:40 2025 Pasadena, USA / Horizons ******************************************************************************* Target body name: Boattini (C/2010 U3) {source: JPL#152} Center body name: Solar System Barycenter (0) {source: DE441} Center-site name: BODY CENTER ******************************************************************************* Start time : A.D. 1950-Jan-01 00:00:00.0000 TDB Stop time : A.D. 2050-Jan-01 00:00:00.0000 TDB Step-size : 100 calendar years ******************************************************************************* Center geodetic : 0.0, 0.0, 0.0 {E-lon(deg),Lat(deg),Alt(km)} Center cylindric: 0.0, 0.0, 0.0 {E-lon(deg),Dxy(km),Dz(km)} Center radii : (undefined) Keplerian GM : 2.9630927493968080E-04 au^3/d^2 Small perturbers: Yes {source: SB441-N16} Output units : AU-D, deg, Julian Day Number (Tp) Calendar mode : Mixed Julian/Gregorian Output type : GEOMETRIC osculating elements Output format : 10 Reference frame : Ecliptic of J2000.0 ******************************************************************************* Initial IAU76/J2000 heliocentric ecliptic osculating elements (au, days, deg.): EPOCH= 2457922.5 ! 2017-Jun-18.0000000 (TDB) RMSW= n.a. EC= 1.000854751537623 QR= 8.445818784114149 TP= 2458540.6229845765 OM= 43.07283924546797 W= 88.06513294078631 IN= 55.51208440289003 Equivalent ICRF heliocentric cartesian coordinates (au, au/d): X= 9.504601048881418E-01 Y= 3.699323002033151E+00 Z= 8.363254827361516E+00 VX=-6.543841377447853E-03 VY=-4.636903664680805E-03 VZ= 2.772774463552692E-04 Comet physical (GM= km^3/s^2; RAD= km): GM= n.a. RAD= n.a. M1= 6.3 M2= 8.3 k1= 6.25 k2= 5. PHCOF= .030 ******************************************************************************* JDTDB EC QR IN OM W Tp N MA TA A AD PR ******************************************************************************* $$SOE 2433282.500000000 = A.D. 1950-Jan-01 00:00:00.0000 TDB EC= 9.995067058163799E-01 QR= 8.448352536266928E+00 IN= 5.548040160387431E+01 OM= 4.303487181193726E+01 W = 8.807688994886453E+01 Tp= 2458540.816700143740 N = 4.400441030668563E-07 MA= 3.599888852266827E+02 TA= 2.162604623950610E+02 A = 1.712639803345888E+04 AD= 3.424434771438149E+04 PR= 8.180998165661247E+08 2469807.500000000 = A.D. 2050-Jan-01 00:00:00.0000 TDB EC= 9.982999856467791E-01 QR= 8.450310797860967E+00 IN= 5.548583537463202E+01 OM= 4.300563867566517E+01 W = 8.810192366933525E+01 Tp= 2458540.753268649802 N = 2.814265806268001E-06 MA= 3.170762007392287E-02 TA= 1.306097302803224E+02 A = 4.970729089347548E+03 AD= 9.933007867897235E+03 PR= 1.279196866188685E+08 $$EOE ******************************************************************************* TIME Barycentric Dynamical Time ("TDB" or T_eph) output was requested. This continuous coordinate time is equivalent to the relativistic proper time of a clock at rest in a reference frame co-moving with the solar system barycenter but outside the system's gravity well. It is the independent variable in the solar system relativistic equations of motion. TDB runs at a uniform rate of one SI second per second and is independent of irregularities in Earth's rotation. CALENDAR SYSTEM Mixed calendar mode was active such that calendar dates after AD 1582-Oct-15 (if any) are in the modern Gregorian system. Dates prior to 1582-Oct-5 (if any) are in the Julian calendar system, which is automatically extended for dates prior to its adoption on 45-Jan-1 BC. The Julian calendar is useful for matching historical dates. The Gregorian calendar more accurately corresponds to the Earth's orbital motion and seasons. A "Gregorian-only" calendar mode is available if such physical events are the primary interest. REFERENCE FRAME AND COORDINATES Ecliptic at the standard reference epoch Reference epoch: J2000.0 X-Y plane: adopted Earth orbital plane at the reference epoch Note: IAU76 obliquity of 84381.448 arcseconds wrt ICRF X-Y plane X-axis : ICRF Z-axis : perpendicular to the X-Y plane in the directional (+ or -) sense of Earth's north pole at the reference epoch. Symbol meaning [1 au= 149597870.700 km, 1 day= 86400.0 s]: JDTDB Julian Day Number, Barycentric Dynamical Time EC Eccentricity, e QR Periapsis distance, q (au) IN Inclination w.r.t X-Y plane, i (degrees) OM Longitude of Ascending Node, OMEGA, (degrees) W Argument of Perifocus, w (degrees) Tp Time of periapsis (Julian Day Number) N Mean motion, n (degrees/day) MA Mean anomaly, M (degrees) TA True anomaly, nu (degrees) A Semi-major axis, a (au) AD Apoapsis distance (au) PR Sidereal orbit period (day) ABERRATIONS AND CORRECTIONS Geometric osculating elements have NO corrections or aberrations applied. Computations by ... Solar System Dynamics Group, Horizons On-Line Ephemeris System 4800 Oak Grove Drive, Jet Propulsion Laboratory Pasadena, CA 91109 USA General site: https://ssd.jpl.nasa.gov/ Mailing list: https://ssd.jpl.nasa.gov/email_list.html System news : https://ssd.jpl.nasa.gov/horizons/news.html User Guide : https://ssd.jpl.nasa.gov/horizons/manual.html Connect : browser https://ssd.jpl.nasa.gov/horizons/app.html#/x API https://ssd-api.jpl.nasa.gov/doc/horizons.html command-line telnet ssd.jpl.nasa.gov 6775 e-mail/batch https://ssd.jpl.nasa.gov/ftp/ssd/horizons_batch.txt scripts https://ssd.jpl.nasa.gov/ftp/ssd/SCRIPTS Author : Jon.D.Giorgini@jpl.nasa.gov ******************************************************************************* !$$SOF CENTER = '@0' COMMAND = '2010 U3' OUT_UNITS = 'AU-D' START_TIME = '1950-01-01' STEP_SIZE = '100 years' STOP_TIME = '2050-01-01' TABLE_TYPE = 'ELEMENTS'